EZY269 EGKK-EDDS

Flight info

Callsign EZY269
Flight time N/A
Altitude 39000
Route ODVIK Y311 DVR UL9 KONAN UL607 MATUG DCT EMGOD L607 UBIDU L984 RUDUS Z738 UBENO N850 KRH T128 BADSO BADSO2A
Aircraft A20N/M-SDE2E3FGHIRWXY/LB1

Departure

Time 2026-05-05 17:33
Airport London Gatwick Airport (EGKK)

Arrival

Time N/A
Airport Stuttgart Airport (EDDS)
Time Latitude Longitude Altitude Speed Heading
2026-05-05 17:08 51.15400 -0.16409 210 ft 0 kts 76°
2026-05-05 17:15 51.15398 -0.16423 212 ft 1 kts 76°
2026-05-05 17:15 51.15395 -0.16440 209 ft 1 kts 76°
2026-05-05 17:15 51.15392 -0.16458 208 ft 2 kts 69°
2026-05-05 17:16 51.15386 -0.16475 214 ft 2 kts 42°
2026-05-05 17:16 51.15378 -0.16485 214 ft 1 kts 18°
2026-05-05 17:16 51.15371 -0.16489 209 ft 1 kts
2026-05-05 17:16 51.15364 -0.16488 206 ft 0 kts 352°
2026-05-05 17:22 51.15376 -0.16491 213 ft 5 kts 351°
2026-05-05 17:22 51.15423 -0.16506 201 ft 9 kts 348°
2026-05-05 17:22 51.15465 -0.16568 204 ft 11 kts 258°
2026-05-05 17:22 51.15447 -0.16708 211 ft 15 kts 273°
2026-05-05 17:23 51.15442 -0.16887 206 ft 18 kts 256°
2026-05-05 17:23 51.15412 -0.17089 208 ft 16 kts 258°
2026-05-05 17:23 51.15372 -0.17263 214 ft 18 kts 254°
2026-05-05 17:23 51.15345 -0.17357 211 ft 9 kts 216°
2026-05-05 17:24 51.15300 -0.17448 212 ft 13 kts 264°
2026-05-05 17:24 51.15280 -0.17611 206 ft 17 kts 257°
2026-05-05 17:24 51.15252 -0.17812 208 ft 20 kts 257°
2026-05-05 17:24 51.15218 -0.18052 211 ft 24 kts 257°
2026-05-05 17:25 51.15198 -0.18191 212 ft 0 kts 256°
2026-05-05 17:25 51.15196 -0.18205 209 ft 4 kts 257°
2026-05-05 17:25 51.15187 -0.18282 216 ft 10 kts 260°
2026-05-05 17:26 51.15170 -0.18421 212 ft 15 kts 258°
2026-05-05 17:26 51.15146 -0.18613 205 ft 20 kts 258°
2026-05-05 17:26 51.15114 -0.18850 215 ft 24 kts 257°
2026-05-05 17:26 51.15076 -0.19134 204 ft 28 kts 258°
2026-05-05 17:27 51.15031 -0.19455 204 ft 31 kts 257°
2026-05-05 17:27 51.14983 -0.19803 209 ft 32 kts 257°
2026-05-05 17:27 51.14943 -0.20098 203 ft 19 kts 257°
2026-05-05 17:27 51.14911 -0.20331 207 ft 23 kts 258°
2026-05-05 17:28 51.14876 -0.20582 206 ft 23 kts 257°
2026-05-05 17:28 51.14839 -0.20851 208 ft 26 kts 257°
2026-05-05 17:28 51.14807 -0.21090 205 ft 16 kts 257°
2026-05-05 17:28 51.14798 -0.21139 211 ft 0 kts 249°
2026-05-05 17:29 51.14797 -0.21140 211 ft 0 kts 249°
2026-05-05 17:30 51.14793 -0.21155 206 ft 4 kts 246°
2026-05-05 17:31 51.14776 -0.21233 201 ft 10 kts 257°
2026-05-05 17:31 51.14756 -0.21369 204 ft 14 kts 246°
2026-05-05 17:31 51.14664 -0.21362 210 ft 17 kts 139°
2026-05-05 17:31 51.14548 -0.21280 214 ft 19 kts 142°
2026-05-05 17:32 51.14529 -0.21073 210 ft 21 kts 77°
2026-05-05 17:32 51.14537 -0.21017 214 ft 0 kts 78°
2026-05-05 17:32 51.14605 -0.20520 208 ft 101 kts 77°
2026-05-05 17:33 51.14820 -0.18962 368 ft 171 kts 77°
2026-05-05 17:33 51.15078 -0.17045 1373 ft 184 kts 78°
2026-05-05 17:33 51.15352 -0.14998 2554 ft 194 kts 77°
2026-05-05 17:33 51.15667 -0.12799 3445 ft 213 kts 77°
2026-05-05 17:34 51.16016 -0.10354 4204 ft 239 kts 77°
2026-05-05 17:34 51.16391 -0.07645 5101 ft 263 kts 77°
2026-05-05 17:34 51.16770 -0.04752 5277 ft 272 kts 81°
2026-05-05 17:34 51.16885 -0.01720 5390 ft 274 kts 92°
2026-05-05 17:35 51.16814 0.01320 5655 ft 274 kts 92°
2026-05-05 17:35 51.16752 0.04379 6038 ft 276 kts 92°
2026-05-05 17:35 51.16695 0.07445 6413 ft 278 kts 91°
2026-05-05 17:35 51.16640 0.10487 6782 ft 280 kts 91°
2026-05-05 17:36 51.16583 0.13620 7152 ft 281 kts 91°
2026-05-05 17:36 51.16529 0.16741 7538 ft 282 kts 91°
2026-05-05 17:36 51.16524 0.19885 7917 ft 284 kts 89°
2026-05-05 17:36 51.16542 0.23003 8289 ft 286 kts 89°
2026-05-05 17:37 51.16562 0.26189 8667 ft 287 kts 89°
2026-05-05 17:37 51.16572 0.28307 8916 ft 288 kts 89°
2026-05-05 17:37 51.16585 0.32574 9417 ft 290 kts 90°
2026-05-05 17:37 51.16589 0.35799 9800 ft 292 kts 90°
2026-05-05 17:38 51.16589 0.39062 10172 ft 293 kts 90°
2026-05-05 17:38 51.16588 0.42326 10549 ft 295 kts 90°
2026-05-05 17:38 51.16586 0.45565 10920 ft 296 kts 90°
2026-05-05 17:38 51.16583 0.48860 11297 ft 298 kts 90°
2026-05-05 17:39 51.16580 0.52306 11689 ft 326 kts 90°
2026-05-05 17:39 51.16579 0.56066 12076 ft 346 kts 90°
2026-05-05 17:39 51.16577 0.59939 12454 ft 350 kts 90°
2026-05-05 17:39 51.16572 0.63829 12830 ft 352 kts 91°
2026-05-05 17:40 51.16481 0.67686 13203 ft 354 kts 92°
2026-05-05 17:40 51.16380 0.71613 13582 ft 356 kts 92°
2026-05-05 17:40 51.16276 0.75573 13954 ft 358 kts 92°
2026-05-05 17:40 51.16168 0.79552 14329 ft 360 kts 92°
2026-05-05 17:41 51.16056 0.83560 14708 ft 362 kts 92°
2026-05-05 17:41 51.15941 0.87589 15085 ft 364 kts 92°
2026-05-05 17:41 51.15825 0.91598 15459 ft 366 kts 92°
2026-05-05 17:41 51.15706 0.95660 15835 ft 368 kts 92°
2026-05-05 17:42 51.15585 0.99757 16213 ft 371 kts 92°
2026-05-05 17:42 51.15465 1.03737 16867 ft 375 kts 92°
2026-05-05 17:42 51.15341 1.07821 17251 ft 363 kts 92°
2026-05-05 17:42 51.15217 1.11864 17659 ft 367 kts 92°
2026-05-05 17:43 51.15091 1.15955 18067 ft 369 kts 92°
2026-05-05 17:43 51.14962 1.20044 18440 ft 369 kts 93°
2026-05-05 17:43 51.14831 1.24169 18798 ft 376 kts 93°
2026-05-05 17:43 51.14699 1.28302 19154 ft 378 kts 93°
2026-05-05 17:44 51.14608 1.31088 19380 ft 380 kts 93°
2026-05-05 17:44 51.14470 1.35323 19761 ft 383 kts 93°
2026-05-05 17:44 51.14283 1.40966 20253 ft 387 kts 93°
2026-05-05 17:44 51.14139 1.45260 20632 ft 389 kts 93°
2026-05-05 17:45 51.14042 1.48122 20883 ft 391 kts 93°
2026-05-05 17:45 51.13893 1.52489 21264 ft 394 kts 93°
2026-05-05 17:45 51.13741 1.56870 21655 ft 397 kts 93°
2026-05-05 17:45 51.13586 1.61299 22060 ft 400 kts 93°
2026-05-05 17:46 51.13431 1.65698 22453 ft 403 kts 93°
2026-05-05 17:46 51.13270 1.70198 22865 ft 407 kts 94°
2026-05-05 17:46 51.13107 1.74719 23278 ft 410 kts 93°
2026-05-05 17:46 51.12941 1.79268 23659 ft 413 kts 94°
2026-05-05 17:47 51.12775 1.83788 24008 ft 414 kts 94°
2026-05-05 17:47 51.12604 1.88374 24364 ft 415 kts 94°
2026-05-05 17:47 51.12436 1.92943 24716 ft 412 kts 95°
2026-05-05 17:47 51.12267 1.97526 25083 ft 414 kts 95°
2026-05-05 17:48 51.12090 2.02138 25498 ft 417 kts 95°
2026-05-05 17:48 51.11912 2.06713 26145 ft 418 kts 96°
2026-05-05 17:48 51.11731 2.11339 26940 ft 417 kts 96°
2026-05-05 17:48 51.11548 2.15935 27723 ft 417 kts 95°
2026-05-05 17:49 51.11362 2.20577 28272 ft 422 kts 96°
2026-05-05 17:49 51.11173 2.25232 28674 ft 429 kts 96°
2026-05-05 17:49 51.10975 2.30040 28792 ft 437 kts 96°
2026-05-05 17:49 51.10775 2.34901 28893 ft 437 kts 96°
2026-05-05 17:50 51.10573 2.39731 28902 ft 436 kts 96°
2026-05-05 17:50 51.10168 2.49295 29157 ft 436 kts 96°
2026-05-05 17:50 51.09958 2.54142 29582 ft 440 kts 96°
2026-05-05 17:51 51.09747 2.59001 30007 ft 441 kts 96°
2026-05-05 17:51 51.09444 2.63887 30377 ft 442 kts 101°
2026-05-05 17:51 51.08848 2.68639 30747 ft 443 kts 107°
2026-05-05 17:51 51.07996 2.73352 31196 ft 441 kts 109°
2026-05-05 17:52 51.07148 2.77996 31720 ft 440 kts 108°
2026-05-05 17:52 51.06299 2.82689 32259 ft 439 kts 108°
2026-05-05 17:52 51.05454 2.87359 32778 ft 436 kts 108°
2026-05-05 17:52 51.04615 2.91980 33324 ft 434 kts 109°
2026-05-05 17:53 51.03783 2.96539 33871 ft 432 kts 109°
2026-05-05 17:53 51.02944 3.01123 34352 ft 431 kts 109°
2026-05-05 17:53 51.02099 3.05720 34614 ft 434 kts 109°
2026-05-05 17:53 51.01245 3.10348 34719 ft 435 kts 109°
2026-05-05 17:54 51.00405 3.14902 34805 ft 435 kts 109°
2026-05-05 17:54 50.98691 3.24151 34882 ft 436 kts 109°
2026-05-05 17:55 50.96971 3.33394 34874 ft 435 kts 109°
2026-05-05 17:55 50.95253 3.42573 34867 ft 435 kts 109°
2026-05-05 17:55 50.94402 3.47109 34866 ft 421 kts 109°
2026-05-05 17:56 50.93582 3.51484 34866 ft 403 kts 109°
2026-05-05 17:56 50.92807 3.55605 34866 ft 386 kts 110°
2026-05-05 17:56 50.92051 3.59610 34862 ft 369 kts 110°
2026-05-05 17:56 50.91337 3.63382 34862 ft 353 kts 110°
2026-05-05 17:57 50.90642 3.67027 34861 ft 336 kts 110°
2026-05-05 17:57 50.89296 3.73981 34864 ft 333 kts 111°
2026-05-05 17:58 50.87926 3.81033 34866 ft 336 kts 111°
2026-05-05 17:58 50.86554 3.88105 34865 ft 335 kts 111°
2026-05-05 17:59 50.85180 3.95172 34866 ft 336 kts 111°
2026-05-05 17:59 50.83805 4.02211 34868 ft 335 kts 111°
2026-05-05 18:00 50.82421 4.09271 34871 ft 335 kts 111°